Year,Month,Day,Hour,Minute,Value (Times are PST for temperature in C)
2015,06,13,00,00,11.90
2015,06,13,00,01,11.90
2015,06,13,00,02,11.90
2015,06,13,00,03,11.80
2015,06,13,00,04,11.80
2015,06,13,00,05,11.80
2015,06,13,00,06,11.80
2015,06,13,00,07,11.80
2015,06,13,00,08,11.80
2015,06,13,00,09,11.70
2015,06,13,00,10,11.70
2015,06,13,00,11,11.60
2015,06,13,00,12,11.60
2015,06,13,00,13,11.60
2015,06,13,00,14,11.50
2015,06,13,00,15,11.40
2015,06,13,00,16,11.40
2015,06,13,00,17,11.40
2015,06,13,00,18,11.30
2015,06,13,00,19,11.30
2015,06,13,00,20,11.20
2015,06,13,00,21,11.20
2015,06,13,00,22,11.20
2015,06,13,00,23,11.10
2015,06,13,00,24,11.10
2015,06,13,00,25,11.10
2015,06,13,00,26,11.00
2015,06,13,00,27,11.00
2015,06,13,00,28,11.00
2015,06,13,00,29,10.90
2015,06,13,00,30,10.90
2015,06,13,00,31,10.90
2015,06,13,00,32,10.80
2015,06,13,00,33,10.80
2015,06,13,00,34,10.80
2015,06,13,00,35,10.80
2015,06,13,00,36,10.70
2015,06,13,00,37,10.70
2015,06,13,00,38,10.70
2015,06,13,00,39,10.60
2015,06,13,00,40,10.60
2015,06,13,00,41,10.60
2015,06,13,00,42,10.50
2015,06,13,00,43,10.50
2015,06,13,00,44,10.40
2015,06,13,00,45,10.40
2015,06,13,00,46,10.40
2015,06,13,00,47,10.40
2015,06,13,00,48,10.30
2015,06,13,00,49,10.30
2015,06,13,00,50,10.30
2015,06,13,00,51,10.30
2015,06,13,00,52,10.20
2015,06,13,00,53,10.20
2015,06,13,00,54,10.20
2015,06,13,00,55,10.20
2015,06,13,00,56,10.10
2015,06,13,00,57,10.10
2015,06,13,00,58,10.10
2015,06,13,00,59,10.10
2015,06,13,01,00,10.00
2015,06,13,01,01,10.00
2015,06,13,01,02,10.00
2015,06,13,01,03,9.90
2015,06,13,01,04,9.90
2015,06,13,01,05,9.90
2015,06,13,01,06,9.90
2015,06,13,01,07,9.80
2015,06,13,01,08,9.80
2015,06,13,01,09,9.80
2015,06,13,01,10,9.80
2015,06,13,01,11,9.80
2015,06,13,01,12,9.70
2015,06,13,01,13,9.70
2015,06,13,01,14,9.70
2015,06,13,01,15,9.70
2015,06,13,01,16,9.70
2015,06,13,01,17,9.60
2015,06,13,01,18,9.60
2015,06,13,01,19,9.60
2015,06,13,01,20,9.60
2015,06,13,01,21,9.60
2015,06,13,01,22,9.60
2015,06,13,01,23,9.50
2015,06,13,01,24,9.50
2015,06,13,01,25,9.40
2015,06,13,01,26,9.40
2015,06,13,01,27,9.40
2015,06,13,01,28,9.40
2015,06,13,01,29,9.40
2015,06,13,01,30,9.30
2015,06,13,01,31,9.30
2015,06,13,01,32,9.30
2015,06,13,01,33,9.30
2015,06,13,01,34,9.30
2015,06,13,01,35,9.30
2015,06,13,01,36,9.30
2015,06,13,01,37,9.20
2015,06,13,01,38,9.20
2015,06,13,01,39,9.20
2015,06,13,01,40,9.20
2015,06,13,01,41,9.10
2015,06,13,01,42,9.10
2015,06,13,01,43,9.10
2015,06,13,01,44,9.10
2015,06,13,01,45,9.10
2015,06,13,01,46,9.10
2015,06,13,01,47,9.00
2015,06,13,01,48,9.00
2015,06,13,01,49,8.90
2015,06,13,01,50,8.90
2015,06,13,01,51,8.90
2015,06,13,01,52,8.90
2015,06,13,01,53,8.90
2015,06,13,01,54,8.90
2015,06,13,01,55,8.90
2015,06,13,01,56,8.90
2015,06,13,01,57,8.80
2015,06,13,01,58,8.80
2015,06,13,01,59,8.80
2015,06,13,02,00,8.80
2015,06,13,02,01,8.80
2015,06,13,02,02,8.80
2015,06,13,02,03,8.80
2015,06,13,02,04,8.70
2015,06,13,02,05,8.70
2015,06,13,02,06,8.70
2015,06,13,02,07,8.70
2015,06,13,02,08,8.70
2015,06,13,02,09,8.70
2015,06,13,02,10,8.60
2015,06,13,02,11,8.60
2015,06,13,02,12,8.60
2015,06,13,02,13,8.60
2015,06,13,02,14,8.60
2015,06,13,02,15,8.60
2015,06,13,02,16,8.50
2015,06,13,02,17,8.50
2015,06,13,02,18,8.50
2015,06,13,02,19,8.50
2015,06,13,02,20,8.50
2015,06,13,02,21,8.40
2015,06,13,02,22,8.40
2015,06,13,02,23,8.40
2015,06,13,02,24,8.40
2015,06,13,02,25,8.40
2015,06,13,02,26,8.40
2015,06,13,02,27,8.30
2015,06,13,02,28,8.30
2015,06,13,02,29,8.30
2015,06,13,02,30,8.30
2015,06,13,02,31,8.30
2015,06,13,02,32,8.30
2015,06,13,02,33,8.20
2015,06,13,02,34,8.20
2015,06,13,02,35,8.20
2015,06,13,02,36,8.20
2015,06,13,02,37,8.20
2015,06,13,02,38,8.20
2015,06,13,02,39,8.20
2015,06,13,02,40,8.20
2015,06,13,02,41,8.10
2015,06,13,02,42,8.10
2015,06,13,02,43,8.10
2015,06,13,02,44,8.10
2015,06,13,02,45,8.10
2015,06,13,02,46,8.10
2015,06,13,02,47,8.10
2015,06,13,02,48,8.10
2015,06,13,02,49,8.10
2015,06,13,02,50,8.10
2015,06,13,02,51,8.10
2015,06,13,02,52,8.00
2015,06,13,02,53,8.00
2015,06,13,02,54,8.00
2015,06,13,02,55,8.00
2015,06,13,02,56,8.00
2015,06,13,02,57,7.90
2015,06,13,02,58,7.90
2015,06,13,02,59,7.90
2015,06,13,03,00,7.90
2015,06,13,03,01,7.90
2015,06,13,03,02,7.90
2015,06,13,03,03,7.90
2015,06,13,03,04,7.90
2015,06,13,03,05,7.90
2015,06,13,03,06,7.90
2015,06,13,03,07,7.90
2015,06,13,03,08,7.90
2015,06,13,03,09,7.90
2015,06,13,03,10,7.90
2015,06,13,03,11,7.90
2015,06,13,03,12,7.90
2015,06,13,03,13,7.90
2015,06,13,03,14,7.90
2015,06,13,03,15,7.90
2015,06,13,03,16,7.90
2015,06,13,03,17,7.80
2015,06,13,03,18,7.80
2015,06,13,03,19,7.80
2015,06,13,03,20,7.80
2015,06,13,03,21,7.80
2015,06,13,03,22,7.80
2015,06,13,03,23,7.80
2015,06,13,03,24,7.80
2015,06,13,03,25,7.80
2015,06,13,03,26,7.70
2015,06,13,03,27,7.70
2015,06,13,03,28,7.70
2015,06,13,03,29,7.70
2015,06,13,03,30,7.70
2015,06,13,03,31,7.70
2015,06,13,03,32,7.70
2015,06,13,03,33,7.70
2015,06,13,03,34,7.70
2015,06,13,03,35,7.70
2015,06,13,03,36,7.60
2015,06,13,03,37,7.60
2015,06,13,03,38,7.60
2015,06,13,03,39,7.60
2015,06,13,03,40,7.60
2015,06,13,03,41,7.60
2015,06,13,03,42,7.60
2015,06,13,03,43,7.60
2015,06,13,03,44,7.50
2015,06,13,03,45,7.50
2015,06,13,03,46,7.50
2015,06,13,03,47,7.50
2015,06,13,03,48,7.50
2015,06,13,03,49,7.50
2015,06,13,03,50,7.40
2015,06,13,03,51,7.40
2015,06,13,03,52,7.40
2015,06,13,03,53,7.40
2015,06,13,03,54,7.40
2015,06,13,03,55,7.40
2015,06,13,03,56,7.30
2015,06,13,03,57,7.30
2015,06,13,03,58,7.30
2015,06,13,03,59,7.30
2015,06,13,04,00,7.30
2015,06,13,04,01,7.30
2015,06,13,04,02,7.30
2015,06,13,04,03,7.30
2015,06,13,04,04,7.30
2015,06,13,04,05,7.20
2015,06,13,04,06,7.20
2015,06,13,04,07,7.20
2015,06,13,04,08,7.20
2015,06,13,04,09,7.20
2015,06,13,04,10,7.20
2015,06,13,04,11,7.20
2015,06,13,04,12,7.20
2015,06,13,04,13,7.20
2015,06,13,04,14,7.20
2015,06,13,04,15,7.20
2015,06,13,04,16,7.20
2015,06,13,04,17,7.20
2015,06,13,04,18,7.20
2015,06,13,04,19,7.20
2015,06,13,04,20,7.20
2015,06,13,04,21,7.10
2015,06,13,04,22,7.10
2015,06,13,04,23,7.10
2015,06,13,04,24,7.10
2015,06,13,04,25,7.10
2015,06,13,04,26,7.10
2015,06,13,04,27,7.10
2015,06,13,04,28,7.10
2015,06,13,04,29,7.00
2015,06,13,04,30,7.00
2015,06,13,04,31,7.00
2015,06,13,04,32,7.00
2015,06,13,04,33,7.00
2015,06,13,04,34,7.00
2015,06,13,04,35,7.00
2015,06,13,04,36,6.90
2015,06,13,04,37,6.90
2015,06,13,04,38,6.90
2015,06,13,04,39,6.90
2015,06,13,04,40,6.90
2015,06,13,04,41,6.90
2015,06,13,04,42,6.90
2015,06,13,04,43,6.80
2015,06,13,04,44,6.80
2015,06,13,04,45,6.80
2015,06,13,04,46,6.80
2015,06,13,04,47,6.80
2015,06,13,04,48,6.80
2015,06,13,04,49,6.80
2015,06,13,04,50,6.80
2015,06,13,04,51,6.80
2015,06,13,04,52,6.80
2015,06,13,04,53,6.80
2015,06,13,04,54,6.80
2015,06,13,04,55,6.70
2015,06,13,04,56,6.70
2015,06,13,04,57,6.70
2015,06,13,04,58,6.70
2015,06,13,04,59,6.70
2015,06,13,05,00,6.70
2015,06,13,05,01,6.70
2015,06,13,05,02,6.70
2015,06,13,05,03,6.60
2015,06,13,05,04,6.60
2015,06,13,05,05,6.60
2015,06,13,05,06,6.60
2015,06,13,05,07,6.60
2015,06,13,05,08,6.60
2015,06,13,05,09,6.50
2015,06,13,05,10,6.50
2015,06,13,05,11,6.50
2015,06,13,05,12,6.50
2015,06,13,05,13,6.50
2015,06,13,05,14,6.40
2015,06,13,05,15,6.40
2015,06,13,05,16,6.40
2015,06,13,05,17,6.40
2015,06,13,05,18,6.40
2015,06,13,05,19,6.40
2015,06,13,05,20,6.40
2015,06,13,05,21,6.40
2015,06,13,05,22,6.40
2015,06,13,05,23,6.40
2015,06,13,05,24,6.40
2015,06,13,05,25,6.40
2015,06,13,05,26,6.40
2015,06,13,05,27,6.40
2015,06,13,05,28,6.40
2015,06,13,05,29,6.40
2015,06,13,05,30,6.40
2015,06,13,05,31,6.40
2015,06,13,05,32,6.40
2015,06,13,05,33,6.40
2015,06,13,05,34,6.40
2015,06,13,05,35,6.40
2015,06,13,05,36,6.40
2015,06,13,05,37,6.40
2015,06,13,05,38,6.40
2015,06,13,05,39,6.40
2015,06,13,05,40,6.30
2015,06,13,05,41,6.30
2015,06,13,05,42,6.30
2015,06,13,05,43,6.30
2015,06,13,05,44,6.30
2015,06,13,05,45,6.30
2015,06,13,05,46,6.30
2015,06,13,05,47,6.30
2015,06,13,05,48,6.30
2015,06,13,05,49,6.30
2015,06,13,05,50,6.30
2015,06,13,05,51,6.30
2015,06,13,05,52,6.30
2015,06,13,05,53,6.30
2015,06,13,05,54,6.30
2015,06,13,05,55,6.30
2015,06,13,05,56,6.30
2015,06,13,05,57,6.30
2015,06,13,05,58,6.30
2015,06,13,05,59,6.30
2015,06,13,06,00,6.30
2015,06,13,06,01,6.30
2015,06,13,06,02,6.30
2015,06,13,06,03,6.30
2015,06,13,06,04,6.30
2015,06,13,06,05,6.30
2015,06,13,06,06,6.30
2015,06,13,06,07,6.30
2015,06,13,06,08,6.30
2015,06,13,06,09,6.30
2015,06,13,06,10,6.30
2015,06,13,06,11,6.40
2015,06,13,06,12,6.40
2015,06,13,06,13,6.40
2015,06,13,06,14,6.40
2015,06,13,06,15,6.30
2015,06,13,06,16,6.30
2015,06,13,06,17,6.30
2015,06,13,06,18,6.30
2015,06,13,06,19,6.30
2015,06,13,06,20,6.30
2015,06,13,06,21,6.30
2015,06,13,06,22,6.40
2015,06,13,06,23,6.30
2015,06,13,06,24,6.30
2015,06,13,06,25,6.30
2015,06,13,06,26,6.30
2015,06,13,06,27,6.40
2015,06,13,06,28,6.40
2015,06,13,06,29,6.40
2015,06,13,06,30,6.40
2015,06,13,06,31,6.40
2015,06,13,06,32,6.40
2015,06,13,06,33,6.40
2015,06,13,06,34,6.40
2015,06,13,06,35,6.40
2015,06,13,06,36,6.40
2015,06,13,06,37,6.40
2015,06,13,06,38,6.40
2015,06,13,06,39,6.40
2015,06,13,06,40,6.40
2015,06,13,06,41,6.40
2015,06,13,06,42,6.40
2015,06,13,06,43,6.40
2015,06,13,06,44,6.40
2015,06,13,06,45,6.40
2015,06,13,06,46,6.50
2015,06,13,06,47,6.50
2015,06,13,06,48,6.50
2015,06,13,06,49,6.50
2015,06,13,06,50,6.60
2015,06,13,06,51,6.60
2015,06,13,06,52,6.60
2015,06,13,06,53,6.60
2015,06,13,06,54,6.60
2015,06,13,06,55,6.70
2015,06,13,06,56,6.70
2015,06,13,06,57,6.70
2015,06,13,06,58,6.70
2015,06,13,06,59,6.70
2015,06,13,07,00,6.80
2015,06,13,07,01,6.80
2015,06,13,07,02,6.80
2015,06,13,07,03,6.90
2015,06,13,07,04,6.90
2015,06,13,07,05,6.90
2015,06,13,07,06,7.00
2015,06,13,07,07,7.10
2015,06,13,07,08,7.10
2015,06,13,07,09,7.10
2015,06,13,07,10,7.20
2015,06,13,07,11,7.20
2015,06,13,07,12,7.20
2015,06,13,07,13,7.30
2015,06,13,07,14,7.30
2015,06,13,07,15,7.40
2015,06,13,07,16,7.40
2015,06,13,07,17,7.50
2015,06,13,07,18,7.50
2015,06,13,07,19,7.60
2015,06,13,07,20,7.70
2015,06,13,07,21,7.70
2015,06,13,07,22,7.80
2015,06,13,07,23,7.90
2015,06,13,07,24,7.90
2015,06,13,07,25,8.00
2015,06,13,07,26,8.10
2015,06,13,07,27,8.10
2015,06,13,07,28,8.20
2015,06,13,07,29,8.30
2015,06,13,07,30,8.40
2015,06,13,07,31,8.40
2015,06,13,07,32,8.50
2015,06,13,07,33,8.60
2015,06,13,07,34,8.70
2015,06,13,07,35,8.80
2015,06,13,07,36,8.80
2015,06,13,07,37,8.90
2015,06,13,07,38,9.00
2015,06,13,07,39,9.10
2015,06,13,07,40,9.20
2015,06,13,07,41,9.30
2015,06,13,07,42,9.40
2015,06,13,07,43,9.50
2015,06,13,07,44,9.60
2015,06,13,07,45,9.70
2015,06,13,07,46,9.70
2015,06,13,07,47,9.80
2015,06,13,07,48,9.90
2015,06,13,07,49,9.90
2015,06,13,07,50,10.00
2015,06,13,07,51,10.10
2015,06,13,07,52,10.10
2015,06,13,07,53,10.20
2015,06,13,07,54,10.20
2015,06,13,07,55,10.30
2015,06,13,07,56,10.30
2015,06,13,07,57,10.40
2015,06,13,07,58,10.40
2015,06,13,07,59,10.50
2015,06,13,08,00,10.60
2015,06,13,08,01,10.70
2015,06,13,08,02,10.70
2015,06,13,08,03,10.80
2015,06,13,08,04,10.90
2015,06,13,08,05,11.00
2015,06,13,08,06,11.10
2015,06,13,08,07,11.20
2015,06,13,08,08,11.30
2015,06,13,08,09,11.40
2015,06,13,08,10,11.50
2015,06,13,08,11,11.60
2015,06,13,08,12,11.70
2015,06,13,08,13,11.80
2015,06,13,08,14,11.90
2015,06,13,08,15,12.00
2015,06,13,08,16,12.10
2015,06,13,08,17,12.20
2015,06,13,08,18,12.30
2015,06,13,08,19,12.40
2015,06,13,08,20,12.40
2015,06,13,08,21,12.50
2015,06,13,08,22,12.50
2015,06,13,08,23,12.50
2015,06,13,08,24,12.60
2015,06,13,08,25,12.60
2015,06,13,08,26,12.60
2015,06,13,08,27,12.60
2015,06,13,08,28,12.60
2015,06,13,08,29,12.60
2015,06,13,08,30,12.70
2015,06,13,08,31,12.70
2015,06,13,08,32,12.80
2015,06,13,08,33,12.90
2015,06,13,08,34,13.00
2015,06,13,08,35,13.10
2015,06,13,08,36,13.10
2015,06,13,08,37,13.20
2015,06,13,08,38,13.20
2015,06,13,08,39,13.30
2015,06,13,08,40,13.30
2015,06,13,08,41,13.40
2015,06,13,08,42,13.40
2015,06,13,08,43,13.50
2015,06,13,08,44,13.60
2015,06,13,08,45,13.60
2015,06,13,08,46,13.50
2015,06,13,08,47,13.50
2015,06,13,08,48,13.50
2015,06,13,08,49,13.50
2015,06,13,08,50,13.50
2015,06,13,08,51,13.40
2015,06,13,08,52,13.50
2015,06,13,08,53,13.60
2015,06,13,08,54,13.60
2015,06,13,08,55,13.60
2015,06,13,08,56,13.60
2015,06,13,08,57,13.70
2015,06,13,08,58,13.80
2015,06,13,08,59,13.80
2015,06,13,09,00,13.80
2015,06,13,09,01,13.90
2015,06,13,09,02,14.00
2015,06,13,09,03,14.00
2015,06,13,09,04,14.10
2015,06,13,09,05,14.20
2015,06,13,09,06,14.20
2015,06,13,09,07,14.20
2015,06,13,09,08,14.30
2015,06,13,09,09,14.30
2015,06,13,09,10,14.30
2015,06,13,09,11,14.40
2015,06,13,09,12,14.50
2015,06,13,09,13,14.60
2015,06,13,09,14,14.70
2015,06,13,09,15,14.70
2015,06,13,09,16,14.70
2015,06,13,09,17,14.80
2015,06,13,09,18,14.80
2015,06,13,09,19,14.80
2015,06,13,09,20,14.90
2015,06,13,09,21,15.00
2015,06,13,09,22,15.00
2015,06,13,09,23,15.00
2015,06,13,09,24,15.00
2015,06,13,09,25,15.00
2015,06,13,09,26,15.10
2015,06,13,09,27,15.20
2015,06,13,09,28,15.30
2015,06,13,09,29,15.40
2015,06,13,09,30,15.40
2015,06,13,09,31,15.50
2015,06,13,09,32,15.50
2015,06,13,09,33,15.60
2015,06,13,09,34,15.70
2015,06,13,09,35,15.70
2015,06,13,09,36,15.80
2015,06,13,09,37,15.80
2015,06,13,09,38,15.90
2015,06,13,09,39,16.00
2015,06,13,09,40,16.00
2015,06,13,09,41,16.10
2015,06,13,09,42,16.20
2015,06,13,09,43,16.20
2015,06,13,09,44,16.20
2015,06,13,09,45,16.30
2015,06,13,09,46,16.40
2015,06,13,09,47,16.50
2015,06,13,09,48,16.50
2015,06,13,09,49,16.60
2015,06,13,09,50,16.50
2015,06,13,09,51,16.40
2015,06,13,09,52,16.40
2015,06,13,09,53,16.30
2015,06,13,09,54,16.30
2015,06,13,09,55,16.30
2015,06,13,09,56,16.30
2015,06,13,09,57,16.40
2015,06,13,09,58,16.40
2015,06,13,09,59,16.30
2015,06,13,10,00,16.30
2015,06,13,10,01,16.30
2015,06,13,10,02,16.20
2015,06,13,10,03,16.20
2015,06,13,10,04,16.30
2015,06,13,10,05,16.30
2015,06,13,10,06,16.30
2015,06,13,10,07,16.30
2015,06,13,10,08,16.40
2015,06,13,10,09,16.40
2015,06,13,10,10,16.40
2015,06,13,10,11,16.40
2015,06,13,10,12,16.50
2015,06,13,10,13,16.60
2015,06,13,10,14,16.70
2015,06,13,10,15,16.80
2015,06,13,10,16,16.80
2015,06,13,10,17,16.80
2015,06,13,10,18,16.80
2015,06,13,10,19,16.80
2015,06,13,10,20,16.80
2015,06,13,10,21,16.80
2015,06,13,10,22,16.80
2015,06,13,10,23,16.80
2015,06,13,10,24,16.80
2015,06,13,10,25,16.80
2015,06,13,10,26,16.90
2015,06,13,10,27,16.90
2015,06,13,10,28,17.00
2015,06,13,10,29,17.10
2015,06,13,10,30,17.20
2015,06,13,10,31,17.20
2015,06,13,10,32,17.20
2015,06,13,10,33,17.20
2015,06,13,10,34,17.20
2015,06,13,10,35,17.20
2015,06,13,10,36,17.10
2015,06,13,10,37,17.10
2015,06,13,10,38,17.10
2015,06,13,10,39,17.10
2015,06,13,10,40,17.10
2015,06,13,10,41,17.10
2015,06,13,10,42,17.10
2015,06,13,10,43,17.10
2015,06,13,10,44,17.10
2015,06,13,10,45,17.10
2015,06,13,10,46,17.10
2015,06,13,10,47,17.20
2015,06,13,10,48,17.30
2015,06,13,10,49,17.30
2015,06,13,10,50,17.30
2015,06,13,10,51,17.30
2015,06,13,10,52,17.30
2015,06,13,10,53,17.30
2015,06,13,10,54,17.40
2015,06,13,10,55,17.40
2015,06,13,10,56,17.40
2015,06,13,10,57,17.40
2015,06,13,10,58,17.40
2015,06,13,10,59,17.40
2015,06,13,11,00,17.40
2015,06,13,11,01,17.40
2015,06,13,11,02,17.40
2015,06,13,11,03,17.40
2015,06,13,11,04,17.50
2015,06,13,11,05,17.50
2015,06,13,11,06,17.50
2015,06,13,11,07,17.60
2015,06,13,11,08,17.60
2015,06,13,11,09,17.60
2015,06,13,11,10,17.60
2015,06,13,11,11,17.60
2015,06,13,11,12,17.60
2015,06,13,11,13,17.50
2015,06,13,11,14,17.50
2015,06,13,11,15,17.50
2015,06,13,11,16,17.40
2015,06,13,11,17,17.40
2015,06,13,11,18,17.40
2015,06,13,11,19,17.40
2015,06,13,11,20,17.50
2015,06,13,11,21,17.60
2015,06,13,11,22,17.70
2015,06,13,11,23,17.80
2015,06,13,11,24,17.80
2015,06,13,11,25,17.90
2015,06,13,11,26,18.00
2015,06,13,11,27,18.10
2015,06,13,11,28,18.20
2015,06,13,11,29,18.30
2015,06,13,11,30,18.40
2015,06,13,11,31,18.50
2015,06,13,11,32,18.50
2015,06,13,11,33,18.50
2015,06,13,11,34,18.40
2015,06,13,11,35,18.40
2015,06,13,11,36,18.40
2015,06,13,11,37,18.40
2015,06,13,11,38,18.40
2015,06,13,11,39,18.50
2015,06,13,11,40,18.60
2015,06,13,11,41,18.60
2015,06,13,11,42,18.50
2015,06,13,11,43,18.40
2015,06,13,11,44,18.30
2015,06,13,11,45,18.30
2015,06,13,11,46,18.20
2015,06,13,11,47,18.20
2015,06,13,11,48,18.20
2015,06,13,11,49,18.30
2015,06,13,11,50,18.40
2015,06,13,11,51,18.50
2015,06,13,11,52,18.60
2015,06,13,11,53,18.70
2015,06,13,11,54,18.80
2015,06,13,11,55,18.80
2015,06,13,11,56,18.90
2015,06,13,11,57,19.00
2015,06,13,11,58,19.10
2015,06,13,11,59,19.10
2015,06,13,12,00,19.20
2015,06,13,12,01,19.20
2015,06,13,12,02,19.20
2015,06,13,12,03,19.30
2015,06,13,12,04,19.40
2015,06,13,12,05,19.30
2015,06,13,12,06,19.30
2015,06,13,12,07,19.10
2015,06,13,12,08,19.00
2015,06,13,12,09,19.00
2015,06,13,12,10,19.00
2015,06,13,12,11,19.00
2015,06,13,12,12,19.00
2015,06,13,12,13,19.00
2015,06,13,12,14,18.90
2015,06,13,12,15,19.00
2015,06,13,12,16,19.00
2015,06,13,12,17,19.10
2015,06,13,12,18,19.10
2015,06,13,12,19,19.10
2015,06,13,12,20,19.10
2015,06,13,12,21,19.10
2015,06,13,12,22,19.10
2015,06,13,12,23,19.20
2015,06,13,12,24,19.20
2015,06,13,12,25,19.30
2015,06,13,12,26,19.40
2015,06,13,12,27,19.50
2015,06,13,12,28,19.50
2015,06,13,12,29,19.50
2015,06,13,12,30,19.50
2015,06,13,12,31,19.40
2015,06,13,12,32,19.30
2015,06,13,12,33,19.30
2015,06,13,12,34,19.30
2015,06,13,12,35,19.30
2015,06,13,12,36,19.30
2015,06,13,12,37,19.30
2015,06,13,12,38,19.30
2015,06,13,12,39,19.20
2015,06,13,12,40,19.20
2015,06,13,12,41,19.20
2015,06,13,12,42,19.20
2015,06,13,12,43,19.20
2015,06,13,12,44,19.20
2015,06,13,12,45,19.30
2015,06,13,12,46,19.30
2015,06,13,12,47,19.40
2015,06,13,12,48,19.40
2015,06,13,12,49,19.50
2015,06,13,12,50,19.50
2015,06,13,12,51,19.60
2015,06,13,12,52,19.70
2015,06,13,12,53,19.80
2015,06,13,12,54,19.90
2015,06,13,12,55,20.00
2015,06,13,12,56,20.10
2015,06,13,12,57,20.10
2015,06,13,12,58,20.20
2015,06,13,12,59,20.20
2015,06,13,13,00,20.30
2015,06,13,13,01,20.30
2015,06,13,13,02,20.30
2015,06,13,13,03,20.30
2015,06,13,13,04,20.40
2015,06,13,13,05,20.30
2015,06,13,13,06,20.20
2015,06,13,13,07,20.10
2015,06,13,13,08,20.10
2015,06,13,13,09,20.10
2015,06,13,13,10,20.10
2015,06,13,13,11,20.00
2015,06,13,13,12,19.80
2015,06,13,13,13,19.80
2015,06,13,13,14,19.70
2015,06,13,13,15,19.80
2015,06,13,13,16,19.80
2015,06,13,13,17,19.90
2015,06,13,13,18,19.90
2015,06,13,13,19,19.90
2015,06,13,13,20,19.80
2015,06,13,13,21,19.80
2015,06,13,13,22,19.80
2015,06,13,13,23,19.90
2015,06,13,13,24,19.90
2015,06,13,13,25,20.00
2015,06,13,13,26,20.10
2015,06,13,13,27,20.20
2015,06,13,13,28,20.30
2015,06,13,13,29,20.40
2015,06,13,13,30,20.50
2015,06,13,13,31,20.60
2015,06,13,13,32,20.60
2015,06,13,13,33,20.60
2015,06,13,13,34,20.50
2015,06,13,13,35,20.40
2015,06,13,13,36,20.40
2015,06,13,13,37,20.30
2015,06,13,13,38,20.30
2015,06,13,13,39,20.30
2015,06,13,13,40,20.30
2015,06,13,13,41,20.40
2015,06,13,13,42,20.50
2015,06,13,13,43,20.60
2015,06,13,13,44,20.60
2015,06,13,13,45,20.70
2015,06,13,13,46,20.80
2015,06,13,13,47,20.70
2015,06,13,13,48,20.70
2015,06,13,13,49,20.60
2015,06,13,13,50,20.60
2015,06,13,13,51,20.60
2015,06,13,13,52,20.60
2015,06,13,13,53,20.50
2015,06,13,13,54,20.50
2015,06,13,13,55,20.60
2015,06,13,13,56,20.60
2015,06,13,13,57,20.50
2015,06,13,13,58,20.40
2015,06,13,13,59,20.40
2015,06,13,14,00,20.40
2015,06,13,14,01,20.50
2015,06,13,14,02,20.60
2015,06,13,14,03,20.70
2015,06,13,14,04,20.80
2015,06,13,14,05,20.80
2015,06,13,14,06,20.70
2015,06,13,14,07,20.70
2015,06,13,14,08,20.70
2015,06,13,14,09,20.80
2015,06,13,14,10,20.90
2015,06,13,14,11,20.90
2015,06,13,14,12,21.00
2015,06,13,14,13,21.10
2015,06,13,14,14,21.10
2015,06,13,14,15,21.10
2015,06,13,14,16,21.10
2015,06,13,14,17,21.00
2015,06,13,14,18,20.90
2015,06,13,14,19,20.90
2015,06,13,14,20,20.90
2015,06,13,14,21,21.00
2015,06,13,14,22,21.00
2015,06,13,14,23,21.00
2015,06,13,14,24,21.00
2015,06,13,14,25,21.00
2015,06,13,14,26,20.90
2015,06,13,14,27,20.90
2015,06,13,14,28,20.90
2015,06,13,14,29,20.90
2015,06,13,14,30,20.90
2015,06,13,14,31,20.90
2015,06,13,14,32,20.80
2015,06,13,14,33,20.80
2015,06,13,14,34,20.70
2015,06,13,14,35,20.60
2015,06,13,14,36,20.60
2015,06,13,14,37,20.70
2015,06,13,14,38,20.70
2015,06,13,14,39,20.70
2015,06,13,14,40,20.80
2015,06,13,14,41,20.90
2015,06,13,14,42,21.00
2015,06,13,14,43,21.10
2015,06,13,14,44,21.20
2015,06,13,14,45,21.20
2015,06,13,14,46,21.30
2015,06,13,14,47,21.40
2015,06,13,14,48,21.40
2015,06,13,14,49,21.50
2015,06,13,14,50,21.50
2015,06,13,14,51,21.40
2015,06,13,14,52,21.30
2015,06,13,14,53,21.20
2015,06,13,14,54,21.10
2015,06,13,14,55,21.00
2015,06,13,14,56,21.00
2015,06,13,14,57,21.00
2015,06,13,14,58,21.10
2015,06,13,14,59,21.10
2015,06,13,15,00,21.20
2015,06,13,15,01,21.30
2015,06,13,15,02,21.30
2015,06,13,15,03,21.40
2015,06,13,15,04,21.50
2015,06,13,15,05,21.50
2015,06,13,15,06,21.60
2015,06,13,15,07,21.60
2015,06,13,15,08,21.60
2015,06,13,15,09,21.50
2015,06,13,15,10,21.40
2015,06,13,15,11,21.40
2015,06,13,15,12,21.30
2015,06,13,15,13,21.30
2015,06,13,15,14,21.30
2015,06,13,15,15,21.20
2015,06,13,15,16,21.10
2015,06,13,15,17,21.10
2015,06,13,15,18,21.10
2015,06,13,15,19,21.10
2015,06,13,15,20,21.00
2015,06,13,15,21,21.00
2015,06,13,15,22,20.80
2015,06,13,15,23,20.80
2015,06,13,15,24,20.80
2015,06,13,15,25,20.80
2015,06,13,15,26,20.80
2015,06,13,15,27,20.80
2015,06,13,15,28,20.80
2015,06,13,15,29,20.80
2015,06,13,15,30,20.90
2015,06,13,15,31,20.90
2015,06,13,15,32,21.00
2015,06,13,15,33,21.20
2015,06,13,15,34,21.20
2015,06,13,15,35,21.20
2015,06,13,15,36,21.10
2015,06,13,15,37,21.00
2015,06,13,15,38,20.90
2015,06,13,15,39,20.90
2015,06,13,15,40,20.80
2015,06,13,15,41,20.80
2015,06,13,15,42,20.80
2015,06,13,15,43,20.80
2015,06,13,15,44,20.80
2015,06,13,15,45,20.90
2015,06,13,15,46,20.90
2015,06,13,15,47,20.90
2015,06,13,15,48,21.00
2015,06,13,15,49,21.00
2015,06,13,15,50,21.10
2015,06,13,15,51,21.10
2015,06,13,15,52,21.10
2015,06,13,15,53,21.10
2015,06,13,15,54,21.10
2015,06,13,15,55,21.20
2015,06,13,15,56,21.30
2015,06,13,15,57,21.40
2015,06,13,15,58,21.50
2015,06,13,15,59,21.50
2015,06,13,16,00,21.50
2015,06,13,16,01,21.50
2015,06,13,16,02,21.50
2015,06,13,16,03,21.40
2015,06,13,16,04,21.30
2015,06,13,16,05,21.20
2015,06,13,16,06,21.20
2015,06,13,16,07,21.20
2015,06,13,16,08,21.20
2015,06,13,16,09,21.20
2015,06,13,16,10,21.20
2015,06,13,16,11,21.10
2015,06,13,16,12,21.10
2015,06,13,16,13,21.10
2015,06,13,16,14,21.10
2015,06,13,16,15,21.10
2015,06,13,16,16,21.10
2015,06,13,16,17,21.10
2015,06,13,16,18,21.10
2015,06,13,16,19,21.10
2015,06,13,16,20,21.10
2015,06,13,16,21,21.10
2015,06,13,16,22,21.20
2015,06,13,16,23,21.20
2015,06,13,16,24,21.30
2015,06,13,16,25,21.30
2015,06,13,16,26,21.40
2015,06,13,16,27,21.40
2015,06,13,16,28,21.50
2015,06,13,16,29,21.50
2015,06,13,16,30,21.50
2015,06,13,16,31,21.60
2015,06,13,16,32,21.60
2015,06,13,16,33,21.60
2015,06,13,16,34,21.60
2015,06,13,16,35,21.50
2015,06,13,16,36,21.50
2015,06,13,16,37,21.40
2015,06,13,16,38,21.40
2015,06,13,16,39,21.30
2015,06,13,16,40,21.30
2015,06,13,16,41,21.20
2015,06,13,16,42,21.20
2015,06,13,16,43,21.20
2015,06,13,16,44,21.30
2015,06,13,16,45,21.30
2015,06,13,16,46,21.30
2015,06,13,16,47,21.30
2015,06,13,16,48,21.30
2015,06,13,16,49,21.40
2015,06,13,16,50,21.40
2015,06,13,16,51,21.50
2015,06,13,16,52,21.50
2015,06,13,16,53,21.60
2015,06,13,16,54,21.70
2015,06,13,16,55,21.80
2015,06,13,16,56,21.80
2015,06,13,16,57,21.70
2015,06,13,16,58,21.70
2015,06,13,16,59,21.70
2015,06,13,17,00,21.70
2015,06,13,17,01,21.70
2015,06,13,17,02,21.70
2015,06,13,17,03,21.80
2015,06,13,17,04,21.80
2015,06,13,17,05,21.80
2015,06,13,17,06,21.80
2015,06,13,17,07,21.80
2015,06,13,17,08,21.80
2015,06,13,17,09,21.80
2015,06,13,17,10,21.80
2015,06,13,17,11,21.70
2015,06,13,17,12,21.70
2015,06,13,17,13,21.80
2015,06,13,17,14,21.70
2015,06,13,17,15,21.60
2015,06,13,17,16,21.60
2015,06,13,17,17,21.50
2015,06,13,17,18,21.50
2015,06,13,17,19,21.40
2015,06,13,17,20,21.40
2015,06,13,17,21,21.40
2015,06,13,17,22,21.50
2015,06,13,17,23,21.50
2015,06,13,17,24,21.60
2015,06,13,17,25,21.60
2015,06,13,17,26,21.60
2015,06,13,17,27,21.60
2015,06,13,17,28,21.60
2015,06,13,17,29,21.60
2015,06,13,17,30,21.60
2015,06,13,17,31,21.60
2015,06,13,17,32,21.50
2015,06,13,17,33,21.50
2015,06,13,17,34,21.40
2015,06,13,17,35,21.40
2015,06,13,17,36,21.40
2015,06,13,17,37,21.30